Wind_Speed
28 26 23 20 18 16 15 14 12 11 10 10 9 9 8 8 8 7 6 6 6 7 6 6 6 7 7 8 8 9 10 11 12 13 13 14 15 15 16 17 18 18 19 19 20 21 22 22 23 24 25 27 28 29 30 32 33 35 36 37 39 40 42 43 43 43 43 44 45 45 46 48 48 49 51 54 55 57 57 57 57 55 55 59 62 61 60
25 23 20 18 16 15 13 12 11 10 9 9 9 8 8 7 7 6 5 5 5 6 6 6 6 7 7 8 9 10 11 12 13 14 14 15 16 16 17 18 18 19 19 20 20 21 22 23 24 25 26 27 28 29 30 32 33 35 36 38 39 41 43 45 46 47 47 48 50 50 49 50 51 50 51 53 55 56 57 57 58 58 57 58 62 62 59
22 20 18 16 15 13 12 11 10 9 9 9 8 8 7 7 6 5 5 5 5 6 6 6 6 7 7 8 9 10 12 12 13 14 14 15 17 17 18 19 19 19 19 20 20 21 22 23 24 25 26 27 29 30 31 32 34 36 37 38 39 40 42 45 47 48 49 50 51 51 51 51 50 49 49 52 53 55 57 58 59 60 59 57 60 64 62
20 18 16 14 13 12 10 10 9 9 9 8 8 7 7 6 5 5 4 4 5 5 5 6 7 7 7 8 10 11 12 13 14 15 15 16 17 18 18 19 19 20 20 20 21 21 22 23 24 25 26 27 29 30 31 33 34 36 37 38 39 39 40 42 45 46 47 48 48 49 49 50 49 48 48 50 53 55 57 58 59 60 61 58 59 63 65
18 16 14 12 11 10 9 9 9 9 8 8 7 6 6 5 5 4 4 4 5 5 6 6 7 8 8 9 10 11 12 13 14 14 15 16 17 18 19 19 20 20 20 20 21 21 22 23 24 26 27 28 29 30 31 33 34 36 37 38 39 39 40 40 43 45 46 46 47 47 48 49 48 47 47 49 52 54 56 58 58 59 62 62 61 62 65
15 13 12 10 9 9 9 9 9 8 8 8 7 6 5 4 4 4 4 5 5 6 6 7 7 8 9 10 10 11 12 13 14 14 15 16 17 18 19 20 20 20 20 21 21 21 22 23 24 26 27 28 29 30 31 33 34 36 37 39 39 40 41 40 41 43 45 46 47 47 47 48 48 47 47 48 50 53 56 58 59 60 61 63 63 63 64
13 11 10 9 8 8 9 9 8 8 8 7 6 6 5 5 4 4 5 5 6 6 6 7 8 8 9 10 11 12 12 13 14 15 16 17 18 19 20 20 21 20 21 21 21 22 23 24 25 26 27 28 29 30 31 33 34 36 37 39 40 41 41 41 41 42 44 46 46 46 47 48 48 47 47 48 50 53 55 58 59 60 61 63 65 65 65
10 9 9 8 8 8 9 9 8 8 7 7 6 6 5 5 5 5 6 6 6 7 7 8 9 9 10 11 12 12 13 14 15 16 17 17 18 19 20 21 21 21 21 21 22 23 23 24 25 26 27 28 29 31 32 33 35 36 38 39 40 41 42 43 42 42 44 45 46 47 47 47 47 47 48 49 50 52 55 58 59 61 62 63 65 66 65
9 8 7 7 7 8 9 8 8 7 7 7 6 6 5 6 6 6 7 7 7 8 9 9 10 11 11 12 13 13 14 15 16 16 17 18 19 20 20 21 21 21 22 22 23 23 24 25 26 26 27 28 30 31 32 33 35 37 38 39 41 42 43 43 44 44 45 47 48 48 48 48 47 48 50 51 51 52 55 58 59 60 62 63 64 65 66
7 7 6 6 7 8 8 8 7 7 7 7 6 6 6 6 7 7 8 9 9 9 10 11 12 13 13 13 14 15 15 16 17 17 18 18 19 20 21 21 22 22 22 23 23 23 24 25 26 27 28 29 30 31 32 33 35 36 38 40 41 42 44 44 46 46 47 48 49 49 49 48 49 50 51 52 52 52 54 57 59 60 62 63 63 64 65
6 5 5 6 7 8 8 8 8 8 8 7 7 7 7 8 8 9 9 10 11 11 12 13 13 14 15 15 16 16 17 17 18 19 19 19 20 21 21 22 22 23 23 23 23 24 24 25 26 27 28 29 30 31 32 33 35 37 38 40 41 42 44 45 47 48 48 48 49 49 49 49 49 50 50 51 53 53 54 56 59 61 62 63 63 64 66
5 5 5 5 6 7 8 9 8 8 8 8 8 8 8 9 10 10 11 12 13 13 14 15 15 16 17 17 18 18 19 19 20 20 21 21 21 22 22 23 23 23 23 23 24 25 25 26 26 27 28 29 30 31 33 34 35 36 38 40 41 42 44 45 47 48 49 49 50 50 50 50 49 48 49 51 53 54 53 55 58 60 62 63 64 65 66
4 4 4 5 6 7 8 9 9 9 9 9 9 9 10 10 11 12 13 14 14 15 16 16 17 18 18 19 20 20 21 21 22 22 22 22 23 23 23 24 24 24 25 25 25 25 26 26 27 28 29 30 31 32 33 34 35 36 38 39 41 42 44 46 47 48 50 50 51 50 49 47 47 48 49 51 53 54 54 54 56 59 61 62 64 65 66
4 4 4 5 5 6 7 8 9 10 10 11 11 12 12 13 13 14 15 15 16 16 17 18 18 19 20 20 21 22 22 23 24 24 24 24 25 25 25 25 26 26 26 26 26 26 27 27 28 29 29 31 31 32 33 34 35 37 38 39 41 42 44 46 47 49 50 51 51 50 49 48 48 50 51 52 53 55 55 55 56 58 60 62 64 65 67
4 4 4 5 5 5 6 7 8 9 10 11 12 13 14 15 15 16 16 17 18 18 18 19 19 20 21 21 22 23 24 25 25 26 26 26 26 27 27 27 27 28 27 28 27 28 28 29 29 30 30 31 32 33 33 34 35 37 38 39 40 42 43 45 47 48 50 51 52 52 53 52 51 51 51 52 53 54 56 56 55 57 59 62 63 65 66
3 3 3 3 4 4 5 6 7 8 9 10 11 12 14 15 16 17 18 18 19 20 20 20 21 21 22 23 23 24 25 26 27 27 28 28 28 28 28 28 29 29 29 29 29 29 30 30 31 31 31 32 33 34 34 35 36 37 38 39 40 41 43 44 46 47 49 50 51 51 52 52 51 51 51 52 53 54 56 56 56 57 60 61 63 64 66
3 2 2 2 3 4 5 5 6 7 9 10 11 12 13 15 16 17 18 19 20 21 21 21 22 22 23 24 24 25 26 27 27 28 28 29 29 29 29 29 29 30 30 30 31 31 31 31 32 32 32 33 34 34 35 36 37 37 38 39 39 41 43 44 45 47 48 49 49 49 49 50 50 50 51 52 53 54 56 56 57 58 60 61 62 64 65
3 2 2 2 3 4 5 6 7 8 9 10 12 13 14 15 17 18 19 20 20 21 22 23 23 23 24 25 25 26 26 27 28 28 29 29 30 30 30 30 31 31 31 31 31 32 32 32 33 33 32 33 34 34 35 36 37 37 38 39 40 41 43 44 45 47 48 49 50 49 47 48 49 49 51 52 53 54 55 55 56 57 59 60 62 63 64
4 2 1 0 1 2 3 4 5 7 8 9 11 12 14 15 17 19 20 22 22 23 24 25 25 26 26 26 27 27 27 28 28 29 29 29 30 30 31 31 31 31 31 32 32 32 32 32 33 34 33 33 34 35 35 36 37 38 39 40 40 42 44 44 45 47 47 48 50 50 49 49 50 50 51 52 53 54 54 54 55 56 58 60 62 63 64
4 3 3 2 2 3 4 5 6 7 9 10 12 13 14 16 17 19 20 22 23 25 26 27 27 28 28 28 29 29 29 29 29 29 30 30 30 30 31 31 31 32 32 32 32 33 33 32 33 34 34 34 34 35 35 35 36 38 39 40 40 42 44 45 45 46 47 48 49 50 51 50 50 50 51 52 52 54 54 54 55 56 58 60 62 63 64
2 2 3 4 5 6 7 8 9 10 12 13 15 17 18 19 20 21 22 23 24 25 26 27 28 29 29 30 30 31 31 31 31 31 31 31 31 31 31 31 31 31 32 32 32 33 33 33 33 34 34 34 35 35 36 35 35 36 38 40 40 41 43 45 45 45 46 47 48 48 49 49 49 49 50 52 52 53 54 54 55 57 58 60 62 63 64
4 5 6 7 8 9 10 11 12 14 15 17 19 20 22 23 24 25 25 26 27 27 28 28 29 29 30 31 32 32 32 33 33 32 32 31 31 31 31 31 31 31 32 32 32 33 33 33 33 33 34 34 35 35 36 37 37 37 38 40 41 41 42 43 44 44 44 45 46 46 47 48 49 49 49 52 53 53 54 55 56 58 59 60 62 64 65
8 8 9 10 11 12 13 14 15 17 18 20 22 24 26 27 28 28 28 29 29 29 30 30 30 30 30 31 31 32 33 34 34 33 33 32 31 31 30 30 31 31 31 32 32 33 33 33 34 34 34 34 35 35 35 36 37 37 38 40 41 41 42 43 43 43 43 43 44 45 45 47 49 49 50 51 53 54 55 56 57 58 59 60 62 64 66
10 11 12 13 14 15 16 16 18 19 21 23 25 27 29 30 30 30 30 30 30 30 30 31 30 30 30 30 31 31 32 33 33 33 33 32 31 31 30 30 30 30 31 31 32 32 33 33 33 34 34 34 36 36 36 36 37 37 38 40 41 41 42 43 43 44 44 44 45 45 45 46 48 50 51 52 53 54 55 56 57 58 59 61 62 65 66
12 12 13 14 15 17 18 18 20 22 24 26 28 30 32 33 32 31 30 30 30 30 30 30 29 29 29 29 29 29 29 30 31 31 31 30 30 30 30 29 30 30 30 31 32 32 32 33 33 34 34 34 35 36 36 37 37 37 39 41 41 41 43 44 44 44 44 45 46 45 45 46 48 50 52 53 54 55 55 57 57 58 60 61 63 65 67
13 13 14 15 16 17 18 20 22 24 27 29 31 33 34 33 31 30 29 29 29 28 28 27 27 27 27 27 27 27 27 27 28 28 28 29 29 29 29 29 29 29 30 31 31 32 32 32 33 34 34 34 35 35 35 36 37 38 39 41 41 42 43 44 45 44 44 45 46 46 46 46 48 50 52 54 55 55 56 57 58 58 60 62 63 65 67
13 14 15 16 17 17 18 21 24 27 30 32 34 33 32 30 29 28 27 26 26 26 25 25 24 24 25 25 25 25 25 25 25 26 27 27 27 27 28 28 28 29 29 30 30 31 32 32 33 33 34 35 35 35 35 36 37 37 40 41 41 41 42 44 45 45 44 45 47 48 48 49 50 51 53 54 55 56 56 57 58 59 60 62 64 65 67
13 14 15 16 17 18 20 24 27 30 32 32 31 29 28 27 25 24 23 22 22 22 22 21 21 22 22 23 23 23 23 24 24 24 25 25 26 26 26 27 28 28 29 30 30 31 31 32 33 33 34 35 36 34 34 36 36 37 40 41 40 41 42 43 45 45 44 44 47 49 50 52 52 53 54 55 55 56 56 57 58 59 61 63 64 65 66
14 15 16 16 17 20 24 28 30 31 31 29 26 25 23 22 21 20 20 19 19 19 19 19 20 20 21 21 22 22 22 22 22 23 23 24 25 25 26 27 27 28 29 29 30 31 31 31 32 33 34 36 37 35 34 36 36 36 39 40 39 40 41 42 44 44 44 45 47 48 50 53 54 54 55 55 55 56 56 57 59 60 62 63 65 66 66
16 17 16 17 20 24 28 30 30 29 27 24 23 22 20 19 18 18 17 17 17 17 18 18 19 20 20 20 21 21 21 21 22 22 23 24 24 25 26 26 27 27 28 29 30 30 31 32 32 33 34 36 37 36 35 36 36 36 38 39 40 40 40 41 43 45 45 46 48 48 50 53 55 55 55 56 55 56 57 58 59 61 63 64 65 65 66
17 17 17 19 23 26 28 29 28 26 23 21 20 20 19 18 17 16 16 16 16 16 17 18 19 19 20 20 20 21 21 21 22 22 23 24 24 25 25 26 27 28 28 29 30 31 32 32 33 33 34 36 37 36 35 36 37 36 37 39 40 40 40 41 43 46 47 49 50 51 51 54 55 55 55 55 56 57 58 59 60 62 63 65 65 65 66
19 18 18 20 24 26 28 28 27 24 21 20 20 19 18 17 17 16 16 16 16 17 18 19 19 20 20 20 20 21 21 22 22 22 23 23 24 25 26 26 27 28 29 30 30 31 32 32 33 33 33 35 36 35 34 36 37 37 38 39 40 40 41 42 44 46 49 51 53 53 52 53 54 54 54 55 56 58 60 61 62 63 64 65 66 66 66
20 19 19 22 24 26 28 28 27 24 22 20 20 19 18 17 17 16 16 16 16 17 18 19 19 20 20 20 20 21 21 21 22 22 23 23 24 25 26 27 27 28 29 30 31 31 31 31 32 32 32 34 35 34 33 35 37 37 38 38 40 41 42 44 46 49 51 53 54 54 53 52 52 53 55 56 57 59 61 63 64 64 65 65 66 67 66
21 20 21 23 25 26 27 28 27 25 22 21 20 19 18 18 17 16 16 16 16 17 17 18 19 20 20 20 20 20 20 21 22 22 23 24 24 24 25 26 27 27 28 29 30 30 30 30 31 31 31 33 34 34 33 34 36 37 38 40 42 44 45 47 49 51 52 52 52 52 52 52 53 54 56 57 58 60 61 63 64 65 65 66 67 67 67
22 22 23 24 25 26 27 27 27 26 23 22 20 19 19 18 17 17 17 17 17 17 17 18 18 19 19 20 20 20 20 21 22 22 22 23 23 24 24 24 25 26 26 28 29 29 29 30 30 30 31 33 34 34 35 36 37 39 41 43 45 48 49 50 51 51 51 50 50 52 53 54 55 56 57 58 59 61 62 63 64 65 66 67 68 68 67
23 23 23 24 24 25 26 27 27 26 24 23 21 20 19 19 19 18 18 18 18 18 18 18 19 19 19 19 19 19 20 20 21 22 22 22 23 23 24 24 25 25 26 27 28 29 29 30 30 31 33 35 35 36 38 39 40 42 43 45 47 49 50 51 52 51 50 49 51 53 55 56 57 58 59 61 62 62 63 63 64 66 67 67 68 68 67
23 23 23 23 24 25 26 26 27 26 25 24 23 22 21 20 20 20 19 19 19 19 19 19 19 19 19 19 19 19 20 21 21 22 23 23 24 25 25 26 26 26 27 28 29 29 30 31 32 33 36 37 38 39 41 42 43 45 45 46 46 47 48 50 51 52 51 50 51 53 55 57 58 59 60 62 63 64 64 64 65 67 67 68 68 68 67
22 23 23 23 24 24 25 26 26 26 25 25 24 23 22 22 21 21 20 20 20 20 20 20 21 21 22 22 22 22 22 23 24 25 26 27 27 28 28 29 29 29 30 31 31 32 32 33 34 35 37 39 40 41 41 42 43 44 46 46 47 47 47 48 50 52 53 52 52 53 55 58 59 60 61 62 63 64 65 65 66 67 68 67 67 68 68
23 23 23 23 24 25 25 26 26 26 25 25 24 24 23 23 22 22 22 22 22 22 22 22 23 24 24 24 25 26 26 27 27 28 29 30 31 31 32 33 33 33 34 34 35 35 35 36 36 37 39 39 39 39 40 41 42 43 46 47 48 48 48 48 49 51 53 54 54 55 56 59 61 62 63 64 65 65 65 66 66 67 67 67 68 68 69
23 23 24 24 25 26 26 27 27 26 26 25 25 24 24 24 24 24 24 24 24 24 24 24 25 26 26 26 27 28 29 29 30 31 31 33 34 34 35 36 36 37 37 37 38 38 39 38 38 39 39 39 38 38 39 40 41 42 44 47 49 49 49 50 50 52 54 55 57 58 59 60 62 64 65 66 66 66 66 65 66 66 67 67 68 68 68
24 24 25 25 26 26 27 27 27 27 27 26 26 26 25 25 25 25 25 25 25 26 26 26 26 27 27 28 29 29 30 31 32 32 33 34 35 36 37 37 38 39 39 39 39 40 40 39 39 39 39 40 40 40 40 41 42 42 44 46 48 50 51 52 53 55 57 58 59 60 61 62 64 65 66 67 66 66 65 65 65 66 66 67 68 68 68
25 25 26 26 27 27 27 27 27 27 27 27 26 27 27 26 26 26 27 27 27 27 28 28 29 29 29 30 30 31 32 33 34 35 35 36 37 37 38 38 39 39 39 39 40 40 41 41 41 41 41 42 43 44 44 45 46 46 47 48 50 52 54 55 56 57 59 60 61 62 63 64 64 65 66 66 66 65 65 65 65 66 66 67 67 67 67
25 25 26 26 26 27 27 27 27 27 27 27 27 28 28 28 28 28 29 30 30 30 31 31 31 31 31 31 31 32 33 34 35 36 36 37 37 38 38 38 38 38 39 39 40 41 42 43 44 44 45 45 46 47 48 49 50 51 51 52 53 55 57 58 59 60 61 62 63 63 64 64 64 65 65 65 65 65 64 64 65 66 66 66 65 65 66
25 26 26 26 27 27 27 27 27 27 28 28 29 29 29 29 30 30 31 31 32 32 32 32 32 33 33 32 32 33 34 34 35 36 37 37 38 39 39 39 40 40 40 41 42 43 44 45 47 47 48 49 49 50 51 52 53 54 55 55 57 59 60 61 62 62 63 63 64 65 65 65 65 65 65 65 66 66 65 65 65 66 66 65 65 65 66
25 26 26 26 27 27 27 27 28 28 28 29 29 30 30 30 31 31 32 32 32 33 33 32 33 33 33 33 34 34 36 36 37 38 39 40 40 41 42 43 44 45 45 45 45 46 47 48 49 49 50 51 52 53 54 55 56 57 58 59 60 61 63 63 64 64 65 65 66 67 67 67 67 67 67 67 67 67 67 66 66 66 66 66 66 66 67
25 25 25 25 25 26 26 27 27 28 29 29 29 30 30 31 31 32 32 32 32 33 33 33 33 33 34 35 35 36 38 39 40 41 43 44 44 44 44 45 47 48 50 50 50 50 50 50 51 52 53 54 55 56 57 58 59 60 61 62 63 63 64 65 65 66 67 67 68 68 69 69 69 69 69 68 68 67 68 68 68 68 69 69 69 69 70
24 24 24 24 24 24 25 26 27 27 28 29 29 29 30 31 31 32 32 33 34 34 35 35 36 36 36 37 38 39 40 42 43 44 46 48 48 48 48 48 49 51 53 54 54 53 53 53 54 55 56 57 58 59 60 61 62 63 64 65 66 66 67 67 68 68 69 70 71 71 71 72 72 72 73 73 72 71 71 72 72 72 73 73 73 73 74
24 24 24 24 24 24 25 26 27 28 28 28 29 29 30 31 32 33 34 35 36 36 37 37 38 39 40 41 42 43 44 45 46 46 48 50 51 51 51 52 52 54 56 58 58 58 58 58 58 59 60 61 62 63 64 66 67 67 68 69 71 72 72 73 73 74 74 75 76 76 76 76 76 77 78 78 77 76 75 75 76 76 77 77 77 77 76
25 24 24 25 25 25 26 27 28 29 30 30 30 30 31 32 33 34 35 36 37 39 40 41 42 43 43 44 45 46 47 48 48 48 49 50 52 53 54 55 56 57 59 61 62 62 62 62 62 63 64 65 67 68 69 70 71 72 73 74 76 77 78 78 79 79 79 80 80 80 79 79 80 80 80 80 80 78 78 78 78 79 79 79 79 78 78
25 25 26 26 27 27 28 29 30 31 31 32 32 32 33 34 35 36 37 38 40 41 43 44 45 46 46 47 48 48 49 49 50 50 51 52 54 55 57 58 59 60 62 63 64 64 65 66 66 67 68 70 71 72 73 74 75 76 77 78 80 80 81 81 82 81 81 81 80 80 80 80 80 81 81 81 81 80 80 79 80 81 80 80 79 79 79
26 27 27 28 29 30 30 31 31 32 33 34 34 34 35 36 37 38 40 41 43 44 45 46 47 48 49 49 50 50 51 51 52 52 54 55 57 58 59 60 61 62 64 65 65 66 67 68 69 70 72 73 74 75 76 77 78 79 80 81 81 82 82 82 82 82 82 81 81 81 82 82 82 83 83 83 83 83 82 82 82 82 82 82 82 82 82
28 29 29 30 31 32 33 33 34 35 36 37 37 38 38 39 40 41 43 44 45 46 47 48 49 50 51 52 52 53 54 55 55 56 57 58 59 60 61 61 62 64 65 66 67 68 69 70 71 72 74 75 76 77 79 80 80 81 81 82 82 83 83 83 84 84 85 84 84 84 85 85 86 86 86 86 86 87 86 85 85 85 85 85 85 85 86
Wind_Direction
142 141 141 142 143 145 148 150 154 157 160 161 162 163 165 167 170 172 180 196 208 218 226 236 250 258 266 270 274 281 285 288 292 294 296 299 302 305 307 308 309 311 314 316 319 321 323 325 325 325 326 327 328 330 331 332 334 335 337 338 339 340 339 339 341 342 342 342 343 345 345 345 346 346 346 346 346 346 346 347 347 349 349 346 346 352 355
141 141 142 144 146 148 150 152 154 156 160 161 162 164 167 170 174 177 190 209 223 235 242 251 261 265 273 279 284 291 292 292 295 298 299 302 304 306 308 308 309 310 313 314 317 320 321 323 325 325 326 327 328 329 330 331 333 334 336 338 339 340 340 339 340 342 343 343 344 345 346 346 346 347 347 346 346 345 345 347 347 348 350 348 346 350 354
142 143 145 148 149 150 150 152 155 157 160 162 163 166 170 175 181 187 202 219 232 244 251 262 269 271 281 289 291 296 297 297 300 303 304 306 308 310 310 310 311 312 313 314 316 319 320 322 324 324 326 327 328 329 330 331 332 333 335 337 339 340 340 340 340 341 343 343 344 344 345 345 345 346 346 345 345 344 345 347 348 348 350 350 346 347 352
144 147 148 149 149 149 150 153 157 159 161 163 166 170 174 179 187 198 214 228 239 247 254 265 273 277 286 293 295 299 301 302 305 307 310 311 312 313 314 314 314 314 314 314 316 318 320 322 324 324 326 328 329 329 330 330 331 333 334 336 337 339 341 340 339 340 341 342 342 342 343 344 344 345 345 345 344 345 345 347 349 348 349 351 348 347 350
147 148 148 149 149 150 154 159 161 163 166 168 172 175 179 185 193 205 221 231 242 253 259 266 274 281 288 293 297 301 305 307 309 311 313 314 315 316 318 318 317 315 315 315 315 317 320 322 323 325 327 328 328 329 329 329 331 332 333 335 336 338 340 341 339 339 339 340 340 341 342 343 343 344 345 345 345 345 345 346 349 349 349 351 350 349 349
148 147 148 150 153 156 161 164 166 170 172 174 177 178 182 192 198 211 229 237 247 255 260 267 276 283 289 295 299 303 308 311 313 315 316 317 318 319 321 321 319 317 316 315 316 318 320 322 323 325 326 328 328 328 329 329 330 331 332 334 336 337 338 340 340 338 338 339 340 341 341 342 343 344 344 344 346 345 344 345 348 349 350 350 351 350 350
148 150 152 154 157 161 166 169 171 175 177 178 181 183 189 200 208 221 235 243 251 256 261 269 276 283 289 295 300 304 309 313 315 318 319 320 322 323 324 323 321 319 318 317 317 318 320 322 324 325 326 327 328 328 328 329 329 330 332 334 335 337 337 338 340 339 338 338 339 340 341 342 343 343 343 345 346 346 344 344 347 349 350 351 351 352 352
151 154 156 159 164 169 172 174 177 180 183 185 189 195 202 212 221 232 240 245 253 258 264 272 277 282 288 294 298 302 307 312 316 319 320 323 325 326 326 325 323 321 320 319 319 319 320 322 324 325 326 327 328 328 328 329 329 330 332 333 334 336 336 337 339 339 338 338 339 340 341 343 343 342 344 345 347 347 345 345 347 349 350 352 351 352 353
154 158 162 167 173 176 179 182 184 187 191 195 200 208 216 226 234 241 247 253 260 264 269 275 278 282 288 293 296 299 304 310 314 317 320 323 326 328 329 328 326 323 322 321 320 320 321 322 324 325 326 327 328 328 328 328 329 330 332 333 334 335 336 336 337 339 339 339 340 341 342 342 342 343 345 345 346 348 346 345 348 349 350 352 352 353 354
157 163 171 177 181 185 188 192 195 198 203 207 213 222 229 238 246 252 257 262 267 271 273 277 280 283 287 291 294 297 301 306 309 313 316 320 323 327 329 329 327 326 324 322 321 321 321 322 324 325 326 327 327 328 328 328 329 330 331 332 333 334 335 336 336 338 339 340 340 341 341 342 343 345 345 344 345 348 348 347 348 350 351 352 353 354 355
162 170 179 186 192 195 197 202 207 211 216 221 227 235 241 249 256 261 265 269 272 275 276 278 280 283 286 289 291 294 297 301 304 307 310 314 317 321 324 326 327 326 325 323 322 323 322 323 324 325 325 326 327 327 327 327 328 329 330 331 332 333 334 335 336 337 339 339 339 340 341 343 345 345 344 344 344 347 350 350 349 351 352 352 353 354 354
171 180 188 196 203 207 210 214 219 224 228 233 239 247 253 259 265 269 271 273 275 276 277 278 279 281 283 286 288 291 294 296 299 301 305 308 311 314 317 321 323 325 325 324 323 322 322 322 323 324 325 325 326 326 326 327 327 328 329 330 331 332 333 334 335 336 338 338 339 340 343 344 344 342 342 344 344 345 349 351 350 351 352 352 352 354 354
186 194 202 210 217 222 225 229 234 239 243 247 250 255 261 265 270 274 276 276 278 278 278 279 279 280 282 284 287 290 292 294 296 298 301 303 306 308 310 313 316 320 322 322 322 321 321 320 321 322 323 324 324 325 325 325 325 327 328 329 330 331 332 333 334 335 336 338 339 340 342 342 341 342 343 344 344 343 346 349 350 350 351 351 352 353 354
204 212 220 228 233 238 242 244 248 252 255 258 259 261 265 268 272 276 278 279 281 281 281 282 282 282 283 285 287 290 291 293 295 297 299 301 302 304 306 308 310 312 315 317 319 319 319 318 319 320 320 321 322 323 323 323 324 325 326 328 329 330 331 332 333 334 335 337 338 338 339 340 342 343 344 344 343 342 344 348 349 349 350 351 352 353 354
220 227 233 242 247 253 257 259 262 265 266 267 267 267 268 271 273 276 278 280 282 283 284 285 286 285 286 287 288 290 291 293 294 296 297 299 300 302 303 304 306 307 309 311 313 315 315 315 316 317 318 319 320 321 322 322 323 324 325 327 328 329 330 331 332 333 334 335 336 337 338 341 343 344 344 343 343 343 344 346 348 348 350 351 352 353 354
210 221 231 244 252 259 264 267 270 272 272 273 273 272 273 274 274 276 278 279 281 284 285 286 287 288 288 289 290 291 292 293 294 295 296 298 299 301 302 303 304 305 305 307 309 310 311 312 313 314 316 317 318 319 320 320 322 323 324 326 327 328 329 330 330 332 333 334 336 338 339 340 342 343 343 342 343 343 343 344 346 348 349 350 351 352 353
175 196 217 239 256 265 271 276 277 279 280 280 280 279 280 280 279 279 280 280 281 283 285 285 287 288 289 291 291 292 292 293 293 294 296 297 299 300 302 303 303 303 304 305 306 307 308 309 310 312 314 315 315 317 319 319 320 321 322 324 326 326 327 329 329 331 332 333 334 338 339 339 341 342 342 341 342 343 344 345 347 348 349 349 350 351 352
163 184 219 249 267 273 279 283 284 285 287 287 286 286 287 286 285 284 284 284 284 285 286 287 287 288 289 290 291 292 292 293 294 295 296 297 299 300 302 302 303 304 304 305 305 306 307 307 308 310 312 313 314 316 317 318 318 319 321 323 325 325 326 328 329 330 332 332 333 336 338 338 340 342 341 341 342 343 344 345 346 347 348 349 350 350 351
117 112 102 59 322 309 304 303 301 300 300 298 296 296 297 295 291 290 288 287 286 286 286 287 287 288 289 289 289 290 291 292 293 294 296 297 299 300 301 302 303 304 305 306 306 306 307 307 307 309 310 311 312 314 315 317 317 318 320 322 324 324 325 327 328 329 331 332 332 334 337 338 340 341 340 340 341 342 343 344 345 347 347 348 349 350 350
92 81 62 38 10 350 337 330 325 320 318 316 312 311 311 307 303 299 296 292 289 287 286 286 285 286 286 286 286 288 288 289 290 292 294 296 297 299 300 302 303 305 306 307 307 307 307 307 306 308 309 310 311 313 314 315 316 317 319 321 323 324 325 326 328 329 330 331 332 335 337 338 339 339 338 339 340 340 341 343 344 345 346 347 348 348 349
47 16 355 344 338 333 329 326 324 322 321 320 317 314 313 311 308 305 302 298 295 292 290 287 286 284 284 284 284 285 285 286 287 289 291 293 295 297 299 301 304 306 307 308 308 307 308 307 306 307 308 309 310 312 312 314 315 316 318 320 321 323 324 325 327 329 330 331 333 335 336 336 337 337 336 337 338 339 340 341 342 344 345 346 346 347 347
324 323 323 324 323 322 321 319 318 317 316 316 314 312 311 310 307 305 303 300 298 296 293 291 289 287 286 284 283 283 283 283 284 286 288 290 292 294 297 300 303 305 307 308 308 307 307 307 307 307 308 308 310 311 312 314 315 316 317 318 320 322 323 324 326 327 329 331 331 333 335 334 334 336 335 335 337 338 339 340 341 342 343 344 344 345 346
300 303 306 308 310 310 311 310 310 310 310 310 310 309 309 309 307 305 303 300 298 296 294 292 292 291 289 288 286 284 282 281 282 283 285 287 290 292 294 297 301 304 306 307 308 308 307 307 307 307 308 308 310 311 312 313 314 316 317 317 319 320 321 322 323 325 327 329 330 332 334 333 332 334 334 334 336 337 338 339 340 340 341 342 343 343 345
291 293 295 297 298 299 300 301 303 304 304 304 305 305 306 307 307 305 303 300 298 296 293 291 291 291 291 291 289 287 284 281 280 281 283 285 288 290 292 295 299 302 304 306 307 308 307 307 307 307 307 308 309 311 312 312 314 315 315 315 317 319 319 320 322 324 327 328 329 331 333 333 331 332 333 334 335 336 337 337 338 338 339 340 341 342 343
289 292 293 295 295 294 294 295 297 298 299 299 301 303 304 306 306 304 302 300 297 295 293 291 290 290 291 292 291 290 287 284 282 281 283 285 287 289 291 294 296 299 302 305 306 307 307 307 306 306 307 308 309 310 311 312 313 315 315 314 316 318 318 319 321 324 327 328 328 330 333 332 331 331 332 333 334 335 335 336 337 337 337 338 339 340 341
293 294 296 298 298 296 295 295 295 296 297 299 301 304 305 306 305 303 301 299 297 295 293 292 291 291 292 293 294 293 290 287 285 284 284 286 288 289 290 293 295 298 302 304 305 306 306 306 306 306 307 308 309 310 311 311 313 314 313 313 316 318 318 319 322 326 328 327 327 329 331 331 330 330 331 332 333 334 334 335 335 336 336 337 338 340 340
298 299 299 301 301 300 300 298 298 299 301 304 306 308 308 308 307 304 302 300 298 297 296 295 294 295 296 297 297 295 293 290 288 287 287 287 288 289 290 292 295 299 301 303 304 305 305 306 305 306 307 307 308 310 311 311 313 313 312 313 316 317 318 320 323 326 328 327 327 328 329 330 330 330 330 331 332 333 333 333 334 334 335 336 338 339 340
301 302 303 303 304 305 305 304 304 306 308 310 311 312 312 311 310 308 305 303 301 300 299 298 299 299 300 300 299 298 295 292 290 289 288 288 288 289 291 293 296 299 301 302 304 304 305 305 305 306 307 307 308 310 311 311 312 312 311 313 316 317 319 321 323 325 326 326 325 326 326 327 328 328 329 330 331 331 332 332 333 334 335 336 337 338 340
307 309 310 310 312 313 313 312 313 315 316 316 316 316 316 316 314 312 310 308 306 304 303 302 301 302 302 302 300 299 297 295 293 292 291 291 291 291 293 295 297 300 301 302 304 304 304 306 306 307 307 307 308 310 311 311 311 311 311 313 315 317 320 321 320 322 324 323 322 323 324 324 325 327 328 328 329 330 331 331 332 333 334 335 336 338 339
314 316 316 317 320 320 320 321 323 322 321 321 320 320 320 319 318 317 316 313 311 307 305 303 302 302 303 302 300 299 298 297 296 294 293 293 294 294 296 297 299 301 302 303 304 305 305 306 307 307 307 307 308 311 312 311 311 312 312 313 316 318 320 319 318 319 321 321 321 323 323 323 324 326 327 328 329 330 331 331 332 333 334 335 336 338 340
319 318 318 322 325 325 325 327 329 328 326 326 326 325 324 323 322 321 320 317 313 309 307 305 305 305 305 304 302 301 300 299 298 297 296 296 297 297 299 300 301 303 304 304 305 306 306 307 308 307 308 308 308 311 313 312 312 314 314 315 317 318 318 317 316 317 319 320 321 323 324 324 325 326 327 328 329 330 331 332 332 332 333 334 336 338 340
320 319 321 325 327 329 330 333 336 336 335 333 332 331 329 327 325 323 322 320 318 315 313 312 311 311 310 309 307 305 304 302 301 300 299 300 300 301 302 303 304 306 306 306 307 307 308 308 308 308 308 308 309 312 314 314 314 316 316 315 315 316 316 316 315 316 318 319 321 324 325 325 326 327 328 329 330 330 331 331 331 332 333 334 335 337 339
321 322 323 325 328 332 335 340 344 344 342 340 339 338 337 335 332 330 327 325 323 321 319 318 317 316 315 313 311 310 309 307 306 305 305 305 306 306 307 307 307 308 308 308 308 309 309 309 309 310 311 310 311 315 317 316 315 316 315 314 314 314 315 316 316 317 319 321 322 324 326 328 328 329 330 330 331 331 330 330 330 331 332 334 334 335 337
323 324 324 326 330 335 339 344 348 348 346 345 345 344 343 342 340 339 336 333 331 329 327 325 323 320 319 317 315 314 313 311 310 310 309 309 308 308 308 308 308 309 310 310 310 312 313 314 314 316 315 314 316 318 318 315 314 314 314 314 314 315 316 317 317 319 321 322 323 325 327 328 330 330 330 330 330 329 329 329 329 330 331 333 333 334 335
325 325 325 327 331 336 340 345 349 350 349 348 348 347 346 346 345 344 342 340 338 336 334 330 327 326 324 321 320 319 317 314 313 312 311 310 310 310 310 310 311 313 314 313 315 317 319 319 320 320 317 316 317 318 317 315 315 315 316 316 316 316 317 318 318 319 321 323 324 326 327 328 329 330 329 329 328 327 327 328 328 329 330 331 331 332 333
324 325 325 327 331 336 341 344 347 348 348 347 347 347 347 347 346 345 344 343 341 339 337 334 332 329 327 324 322 321 319 317 315 314 313 314 314 314 314 315 316 318 318 318 319 321 321 320 320 319 316 316 317 317 316 316 316 316 317 317 317 317 317 318 318 319 321 323 325 327 327 327 328 327 327 326 326 326 327 327 327 328 328 329 330 330 332
323 324 326 328 331 335 339 341 343 343 344 344 344 344 344 345 344 342 342 341 339 338 337 335 332 330 327 325 324 323 321 320 319 318 318 318 318 318 319 319 319 320 320 319 319 319 319 319 318 317 315 316 317 318 318 319 318 318 318 317 316 316 316 317 318 320 321 324 325 325 325 324 324 324 324 324 324 324 325 326 326 326 327 328 328 329 330
321 323 325 327 330 333 336 337 337 338 339 340 340 339 339 340 339 338 336 335 334 332 332 331 329 328 326 325 323 323 322 321 321 320 320 320 319 320 320 320 320 321 320 319 319 320 319 319 319 317 317 318 319 320 320 320 319 318 317 316 316 317 317 318 319 320 320 322 323 323 322 321 321 322 322 322 322 323 324 324 325 325 326 327 327 328 329
319 321 323 325 327 329 331 331 331 332 333 334 334 334 335 335 334 332 330 329 328 327 327 325 323 322 321 320 320 320 320 320 319 319 319 319 319 319 320 320 321 321 321 320 321 321 320 321 321 320 320 321 321 321 321 321 320 319 317 317 318 318 318 318 318 318 318 320 321 321 321 320 321 321 322 321 322 323 323 324 324 324 325 326 326 327 328
316 319 320 322 324 325 325 326 326 327 328 328 329 330 331 331 330 328 327 326 324 323 322 320 318 318 318 317 317 317 318 318 318 318 318 318 319 319 320 320 320 321 321 322 322 323 323 324 325 324 323 324 324 323 322 321 320 319 318 317 317 317 317 317 318 318 318 320 320 321 321 321 321 321 321 321 322 322 323 323 324 324 324 325 325 326 327
313 315 316 318 319 320 321 321 322 323 324 324 325 326 327 327 326 325 324 323 322 320 318 317 316 316 317 317 316 317 317 318 318 319 319 319 319 319 320 320 320 322 323 324 325 325 326 327 327 325 325 325 324 323 322 320 318 317 317 316 316 316 317 318 319 319 319 320 320 321 321 321 320 320 320 321 321 322 322 323 323 323 323 324 325 326 326
310 310 312 313 314 316 317 318 319 320 320 321 321 322 322 322 321 321 320 320 320 318 318 317 318 318 319 319 319 319 320 320 320 321 321 320 320 320 321 321 323 325 326 327 327 327 326 325 325 324 324 324 323 321 321 319 319 319 319 318 317 317 317 318 319 319 318 318 319 319 319 319 319 319 319 319 320 320 321 322 322 322 323 324 325 325 325
309 309 309 310 311 313 314 315 316 317 317 318 318 318 317 317 317 317 318 318 318 319 319 320 321 322 323 323 324 324 323 323 323 323 322 322 322 322 322 324 325 326 326 326 325 324 323 322 323 323 323 323 321 320 319 319 319 319 319 319 318 317 317 317 317 317 317 317 317 317 318 318 318 318 318 318 318 319 320 321 322 322 323 324 324 323 323
308 308 308 308 309 310 311 312 313 314 314 314 314 314 315 315 315 315 316 317 318 320 322 324 325 326 327 327 327 326 325 324 324 323 322 322 322 323 324 325 325 324 323 322 322 321 321 321 322 322 321 320 319 318 318 318 318 318 318 317 316 316 315 315 315 315 315 315 316 316 316 316 316 316 316 317 318 319 320 321 322 322 323 323 322 322 322
308 307 307 307 308 309 310 310 310 311 311 311 312 313 314 314 315 316 318 319 321 322 324 326 327 327 327 327 326 325 324 323 324 323 322 322 323 323 324 324 324 322 320 319 319 319 319 320 320 319 318 317 317 317 317 317 316 316 315 315 315 314 314 314 314 314 314 314 314 314 314 314 314 314 315 317 318 319 320 321 322 322 322 322 322 321 322
307 307 307 307 307 308 308 308 308 309 310 311 312 314 315 316 318 320 321 322 323 324 324 325 325 325 324 324 324 323 322 322 322 322 321 321 322 323 323 323 321 319 318 317 318 319 319 319 318 318 317 316 316 315 315 314 314 314 314 313 313 313 313 313 313 313 313 313 313 313 313 313 314 315 316 317 319 319 320 321 321 321 321 321 321 321 321
308 309 310 310 309 309 309 308 308 309 311 312 315 316 318 320 322 323 323 323 323 323 323 323 323 323 323 322 322 321 320 320 321 322 321 321 321 322 321 320 319 318 317 317 318 319 319 318 318 318 317 316 315 314 314 313 313 313 313 313 313 313 313 313 312 312 312 312 313 313 314 315 316 316 317 318 319 320 320 321 321 320 320 320 320 320 320
310 311 312 312 313 313 312 311 311 312 314 316 317 319 320 322 323 323 323 322 322 322 322 322 322 322 322 321 321 320 319 319 319 320 320 320 319 319 318 318 318 317 317 317 318 318 318 318 318 317 316 315 314 314 314 314 314 314 313 313 313 313 313 313 313 313 313 313 314 315 315 316 316 317 317 318 319 319 320 319 319 318 318 318 319 319 319
312 312 313 314 315 316 315 315 314 314 315 317 319 320 321 322 322 322 321 321 321 321 321 321 320 320 320 319 318 317 317 317 318 319 319 318 316 316 316 317 317 317 317 317 317 318 318 317 317 316 316 315 315 315 314 314 314 314 313 313 313 313 313 313 313 313 314 314 315 315 315 316 316 316 316 317 317 317 317 316 316 316 316 316 317 317 317
313 313 314 315 316 316 316 315 315 315 316 317 319 320 321 321 321 320 320 320 319 319 318 318 317 317 316 315 315 315 315 316 317 317 317 315 315 315 316 317 317 317 316 316 316 316 316 316 316 316 315 315 314 314 314 313 313 312 312 312 312 312 312 312 313 313 313 313 314 314 314 314 314 314 314 314 314 314 314 315 314 314 315 315 315 315 315
314 314 315 315 315 315 315 315 315 315 315 317 318 319 319 319 318 318 317 317 316 316 315 315 315 314 314 314 315 316 316 316 316 316 315 315 315 315 316 316 316 315 314 314 314 315 315 315 314 314 314 313 313 312 312 311 311 311 310 311 311 311 311 311 312 312 312 312 312 312 312 312 312 312 312 313 313 313 313 313 313 312 313 313 313 313 313
312 313 313 313 313 313 313 314 314 314 315 316 316 317 316 316 316 315 315 315 314 314 314 314 314 315 315 316 316 316 315 315 315 315 314 314 314 314 314 313 313 312 312 313 313 313 313 313 312 312 311 311 311 310 310 309 309 309 309 310 310 310 310 311 311 311 311 311 311 311 311 311 311 311 311 311 311 310 310 310 310 310 310 311 311 310 310
Height
5811 5813 5815 5817 5818 5820 5821 5822 5823 5825 5825 5826 5827 5828 5829 5829 5830 5830 5831 5831 5832 5832 5832 5832 5832 5832 5832 5832 5832 5831 5831 5830 5829 5828 5828 5827 5826 5824 5823 5822 5821 5819 5818 5816 5815 5813 5811 5809 5807 5804 5802 5799 5797 5794 5792 5789 5786 5782 5779 5775 5771 5767 5762 5758 5755 5751 5748 5743 5738 5734 5729 5724 5719 5713 5706 5700 5694 5689 5685 5679 5674 5670 5664 5654 5646 5642 5634
5813 5815 5817 5818 5820 5821 5822 5823 5824 5825 5826 5827 5828 5828 5829 5830 5830 5831 5831 5832 5832 5832 5832 5832 5832 5832 5832 5831 5831 5831 5830 5829 5828 5828 5827 5825 5824 5823 5822 5821 5819 5818 5816 5815 5813 5811 5809 5807 5805 5802 5800 5797 5795 5792 5790 5787 5784 5780 5777 5773 5769 5765 5759 5754 5750 5746 5742 5737 5732 5728 5724 5719 5714 5709 5704 5698 5693 5688 5683 5678 5672 5666 5661 5653 5643 5638 5634
5815 5817 5818 5820 5821 5822 5823 5824 5825 5826 5827 5827 5828 5829 5830 5830 5831 5831 5831 5832 5832 5832 5832 5832 5832 5832 5831 5831 5831 5830 5829 5828 5828 5827 5826 5824 5823 5822 5820 5819 5818 5816 5815 5813 5811 5809 5807 5805 5803 5801 5798 5796 5793 5790 5787 5785 5782 5778 5775 5772 5768 5764 5759 5753 5748 5743 5739 5734 5729 5724 5721 5717 5712 5708 5704 5698 5693 5687 5681 5675 5669 5662 5657 5652 5642 5634 5631
5817 5819 5820 5821 5822 5823 5824 5825 5826 5827 5827 5828 5829 5830 5830 5830 5831 5831 5831 5831 5832 5832 5832 5832 5832 5831 5831 5830 5830 5829 5828 5827 5827 5825 5824 5823 5822 5820 5819 5817 5816 5814 5813 5811 5809 5807 5805 5803 5801 5799 5796 5794 5791 5788 5785 5782 5780 5776 5773 5770 5766 5763 5759 5753 5748 5743 5739 5734 5730 5725 5720 5716 5712 5707 5703 5698 5691 5685 5678 5673 5667 5660 5655 5651 5643 5632 5626
5819 5820 5821 5822 5823 5824 5825 5826 5826 5827 5828 5829 5829 5830 5830 5831 5831 5831 5831 5831 5831 5831 5831 5831 5831 5831 5830 5830 5829 5828 5827 5826 5825 5824 5823 5822 5820 5819 5817 5816 5814 5812 5811 5809 5807 5805 5804 5801 5799 5797 5794 5792 5789 5786 5784 5781 5778 5774 5771 5768 5764 5761 5758 5754 5748 5743 5739 5734 5730 5725 5720 5715 5711 5706 5702 5697 5690 5683 5677 5671 5666 5659 5652 5647 5641 5631 5623
5820 5821 5822 5823 5824 5825 5825 5826 5827 5828 5828 5829 5830 5830 5830 5831 5831 5831 5831 5831 5831 5831 5831 5831 5830 5830 5829 5829 5828 5827 5826 5825 5824 5823 5822 5820 5819 5817 5816 5814 5812 5811 5809 5807 5805 5803 5802 5799 5797 5795 5792 5790 5787 5784 5782 5779 5775 5772 5769 5765 5762 5758 5755 5752 5748 5742 5737 5733 5728 5724 5719 5714 5709 5705 5700 5695 5690 5682 5676 5670 5664 5658 5650 5643 5638 5631 5622
5821 5822 5823 5824 5824 5825 5826 5827 5828 5828 5829 5829 5830 5830 5830 5831 5831 5831 5831 5831 5831 5831 5830 5830 5830 5829 5829 5828 5827 5826 5825 5824 5823 5822 5820 5819 5817 5816 5814 5812 5811 5809 5807 5805 5803 5801 5799 5797 5795 5793 5790 5787 5785 5782 5780 5777 5773 5770 5767 5763 5759 5756 5752 5749 5747 5742 5736 5731 5727 5722 5718 5712 5707 5703 5698 5693 5688 5681 5674 5668 5662 5656 5649 5641 5634 5628 5621
5822 5823 5824 5824 5825 5826 5827 5827 5828 5828 5829 5829 5830 5830 5830 5830 5831 5831 5831 5830 5830 5830 5830 5829 5829 5828 5828 5827 5826 5825 5824 5823 5822 5820 5819 5817 5816 5814 5812 5811 5809 5807 5805 5803 5801 5799 5797 5795 5793 5790 5788 5785 5783 5780 5777 5774 5771 5768 5764 5761 5757 5753 5750 5746 5743 5740 5735 5730 5725 5720 5715 5710 5705 5701 5696 5691 5686 5680 5672 5665 5660 5653 5647 5640 5632 5625 5619
5823 5824 5824 5825 5826 5826 5827 5828 5828 5829 5829 5829 5830 5830 5830 5830 5830 5830 5830 5830 5830 5829 5829 5828 5828 5827 5826 5826 5825 5824 5823 5822 5820 5819 5818 5816 5814 5813 5811 5809 5807 5805 5803 5801 5799 5797 5795 5793 5790 5788 5786 5783 5780 5778 5775 5772 5769 5765 5762 5758 5754 5751 5747 5743 5740 5737 5732 5727 5722 5717 5712 5708 5703 5698 5692 5687 5683 5678 5670 5663 5657 5651 5644 5638 5631 5623 5617
5823 5824 5825 5825 5826 5827 5827 5828 5828 5829 5829 5829 5830 5830 5830 5830 5830 5830 5829 5829 5829 5828 5828 5827 5827 5826 5825 5824 5823 5822 5821 5820 5819 5818 5816 5815 5813 5811 5809 5808 5806 5804 5802 5799 5797 5795 5793 5791 5788 5786 5783 5781 5778 5775 5773 5769 5766 5763 5759 5756 5752 5748 5744 5740 5736 5733 5729 5723 5719 5714 5710 5705 5700 5694 5689 5684 5680 5676 5669 5661 5654 5649 5642 5635 5629 5621 5615
5824 5825 5825 5826 5826 5827 5827 5828 5828 5829 5829 5829 5829 5829 5829 5829 5829 5829 5829 5828 5828 5827 5827 5826 5825 5824 5824 5823 5822 5821 5820 5819 5817 5816 5814 5813 5811 5810 5808 5806 5804 5802 5800 5798 5795 5793 5791 5789 5786 5784 5781 5779 5776 5773 5770 5767 5764 5761 5757 5753 5750 5746 5742 5737 5733 5729 5725 5721 5716 5712 5707 5702 5696 5692 5688 5683 5677 5673 5667 5659 5651 5645 5638 5631 5625 5619 5613
5824 5825 5825 5826 5826 5827 5827 5828 5828 5828 5828 5828 5828 5828 5828 5828 5828 5828 5827 5827 5826 5826 5825 5825 5824 5823 5822 5821 5820 5819 5818 5817 5815 5814 5812 5811 5809 5808 5806 5804 5802 5800 5798 5796 5793 5791 5789 5787 5784 5782 5779 5776 5774 5771 5768 5765 5762 5758 5755 5751 5747 5743 5739 5735 5730 5726 5722 5718 5713 5709 5704 5698 5694 5691 5686 5681 5674 5670 5666 5659 5651 5644 5637 5630 5624 5617 5610
5825 5825 5826 5826 5826 5827 5827 5827 5827 5828 5828 5828 5828 5827 5827 5827 5827 5826 5826 5825 5825 5824 5823 5823 5822 5821 5820 5819 5818 5817 5816 5814 5813 5812 5810 5809 5807 5806 5804 5802 5800 5798 5796 5794 5791 5789 5787 5785 5782 5780 5777 5774 5771 5769 5765 5762 5759 5756 5752 5749 5745 5741 5736 5732 5728 5723 5719 5715 5710 5706 5702 5699 5694 5689 5683 5678 5672 5667 5663 5658 5651 5643 5637 5629 5622 5615 5607
5825 5825 5826 5826 5826 5826 5826 5827 5827 5827 5827 5827 5826 5826 5826 5826 5825 5825 5824 5824 5823 5822 5822 5821 5820 5819 5818 5817 5816 5814 5813 5812 5811 5809 5808 5806 5805 5803 5801 5799 5797 5796 5793 5791 5789 5787 5784 5782 5780 5777 5774 5772 5769 5766 5763 5760 5757 5753 5750 5746 5742 5738 5733 5729 5725 5720 5715 5711 5707 5704 5700 5696 5691 5685 5679 5674 5669 5663 5658 5654 5649 5642 5635 5628 5620 5613 5605
5825 5825 5825 5826 5826 5826 5826 5826 5826 5826 5825 5825 5825 5825 5824 5824 5824 5823 5822 5822 5821 5820 5819 5818 5817 5816 5815 5814 5813 5812 5811 5809 5808 5807 5805 5804 5802 5800 5799 5797 5795 5793 5791 5789 5786 5784 5782 5779 5777 5774 5772 5769 5766 5763 5760 5757 5754 5750 5747 5743 5739 5735 5731 5726 5722 5717 5712 5708 5704 5699 5694 5690 5685 5681 5676 5671 5666 5660 5654 5650 5646 5641 5634 5627 5619 5612 5605
5825 5825 5825 5825 5825 5825 5825 5825 5825 5824 5824 5824 5824 5823 5823 5822 5822 5821 5820 5820 5819 5818 5817 5816 5815 5814 5813 5812 5810 5809 5808 5807 5805 5804 5802 5801 5799 5797 5796 5794 5792 5790 5788 5786 5784 5781 5779 5777 5774 5771 5769 5766 5763 5760 5757 5754 5751 5747 5744 5740 5737 5732 5728 5724 5719 5715 5710 5705 5701 5696 5690 5686 5682 5678 5673 5669 5663 5658 5651 5646 5642 5636 5630 5624 5618 5611 5604
5825 5825 5825 5825 5825 5825 5824 5824 5824 5824 5823 5823 5822 5822 5821 5821 5820 5819 5818 5818 5817 5815 5815 5813 5812 5811 5810 5809 5808 5806 5805 5804 5802 5801 5799 5798 5796 5794 5793 5791 5789 5787 5785 5783 5781 5778 5776 5774 5771 5769 5766 5763 5760 5757 5754 5751 5747 5744 5741 5738 5734 5730 5726 5722 5717 5713 5708 5703 5699 5695 5690 5685 5681 5676 5671 5666 5661 5655 5648 5642 5637 5632 5627 5622 5616 5609 5603
5824 5824 5825 5824 5824 5824 5824 5824 5823 5823 5822 5822 5821 5821 5820 5819 5818 5817 5816 5815 5814 5813 5812 5811 5810 5809 5807 5806 5805 5804 5802 5801 5799 5798 5796 5795 5793 5791 5790 5788 5786 5784 5782 5780 5778 5775 5773 5771 5768 5766 5763 5760 5757 5754 5751 5748 5744 5741 5738 5734 5731 5727 5723 5719 5714 5710 5705 5700 5696 5693 5689 5684 5678 5674 5668 5663 5658 5653 5647 5641 5635 5631 5625 5620 5614 5608 5602
5825 5824 5824 5824 5824 5824 5823 5823 5822 5822 5821 5821 5820 5819 5818 5817 5816 5815 5814 5813 5812 5810 5809 5808 5807 5806 5805 5803 5802 5801 5799 5798 5796 5795 5793 5792 5790 5788 5786 5785 5783 5781 5779 5777 5774 5772 5770 5768 5765 5762 5760 5757 5754 5751 5748 5745 5741 5738 5734 5731 5727 5723 5720 5716 5711 5707 5702 5698 5692 5688 5685 5680 5675 5670 5666 5660 5655 5650 5646 5641 5635 5630 5624 5618 5612 5606 5600
5825 5825 5824 5824 5824 5823 5823 5822 5822 5821 5820 5819 5818 5817 5816 5815 5814 5813 5811 5810 5809 5808 5806 5805 5804 5802 5801 5800 5799 5797 5796 5794 5793 5792 5790 5788 5787 5785 5783 5781 5779 5777 5775 5774 5771 5769 5767 5764 5762 5759 5757 5754 5751 5748 5745 5743 5739 5734 5731 5728 5724 5720 5716 5713 5709 5704 5699 5695 5689 5684 5680 5676 5672 5667 5663 5658 5654 5648 5643 5638 5633 5628 5622 5616 5609 5603 5597
5825 5825 5824 5824 5823 5823 5822 5821 5821 5820 5819 5818 5817 5815 5814 5813 5812 5810 5809 5807 5806 5804 5803 5802 5800 5799 5798 5796 5795 5794 5792 5791 5790 5788 5787 5785 5783 5782 5780 5778 5776 5774 5772 5770 5768 5765 5763 5761 5758 5756 5753 5751 5748 5745 5742 5740 5737 5733 5728 5725 5722 5718 5713 5709 5706 5701 5696 5692 5687 5683 5678 5674 5671 5667 5661 5656 5652 5647 5641 5636 5630 5625 5619 5613 5607 5601 5594
5825 5824 5824 5823 5823 5822 5821 5820 5819 5818 5817 5816 5815 5813 5812 5810 5809 5807 5806 5804 5802 5801 5799 5798 5796 5795 5794 5792 5791 5790 5788 5787 5786 5784 5783 5782 5780 5778 5777 5775 5773 5771 5769 5767 5765 5762 5760 5757 5755 5753 5750 5747 5745 5742 5739 5736 5733 5730 5726 5722 5719 5715 5711 5707 5703 5699 5695 5690 5686 5682 5678 5672 5668 5665 5660 5654 5649 5644 5638 5633 5627 5621 5616 5610 5604 5598 5592
5825 5824 5823 5823 5822 5821 5820 5819 5818 5817 5815 5814 5812 5811 5809 5807 5805 5804 5802 5800 5798 5797 5795 5794 5792 5791 5790 5788 5787 5786 5784 5783 5782 5781 5779 5778 5776 5775 5773 5771 5770 5768 5765 5763 5761 5759 5756 5754 5751 5749 5747 5744 5741 5739 5736 5733 5730 5727 5723 5719 5716 5712 5708 5705 5701 5697 5694 5690 5685 5681 5677 5671 5665 5661 5657 5652 5646 5641 5635 5630 5624 5619 5613 5607 5601 5595 5589
5824 5823 5822 5821 5821 5819 5818 5817 5816 5815 5813 5811 5810 5808 5806 5804 5802 5800 5798 5796 5794 5793 5791 5790 5789 5787 5786 5784 5783 5781 5780 5779 5778 5777 5776 5774 5773 5771 5770 5768 5766 5764 5762 5760 5758 5756 5753 5751 5748 5746 5743 5740 5738 5735 5732 5729 5727 5724 5720 5716 5713 5709 5705 5701 5698 5694 5690 5687 5683 5678 5675 5670 5663 5658 5654 5649 5644 5638 5633 5627 5622 5616 5610 5605 5599 5593 5587
5822 5822 5821 5820 5819 5818 5817 5815 5814 5812 5811 5809 5807 5805 5803 5801 5798 5796 5794 5792 5791 5789 5787 5786 5785 5783 5782 5780 5779 5777 5776 5775 5774 5773 5772 5771 5769 5768 5766 5765 5763 5761 5759 5757 5754 5752 5750 5747 5745 5742 5740 5737 5734 5732 5729 5725 5723 5720 5716 5712 5709 5706 5701 5697 5694 5691 5687 5683 5679 5675 5672 5667 5661 5655 5650 5645 5641 5636 5630 5625 5619 5614 5608 5602 5596 5590 5584
5821 5820 5819 5818 5817 5816 5815 5813 5811 5810 5808 5806 5804 5801 5799 5797 5794 5792 5790 5788 5786 5785 5783 5782 5781 5780 5778 5777 5775 5774 5773 5771 5770 5769 5768 5767 5766 5764 5763 5761 5759 5758 5755 5753 5751 5749 5746 5744 5741 5739 5736 5734 5731 5729 5726 5722 5719 5716 5712 5708 5705 5702 5698 5693 5690 5688 5684 5679 5675 5671 5668 5664 5659 5653 5648 5643 5637 5632 5628 5622 5616 5611 5605 5599 5594 5588 5581
5819 5819 5818 5816 5815 5814 5812 5811 5809 5807 5804 5802 5800 5797 5795 5792 5790 5788 5786 5784 5783 5781 5780 5779 5777 5776 5775 5774 5772 5771 5769 5768 5767 5766 5765 5764 5762 5761 5759 5758 5756 5754 5752 5750 5748 5745 5743 5740 5738 5735 5733 5730 5728 5726 5723 5719 5716 5713 5708 5705 5702 5698 5694 5690 5686 5683 5680 5676 5670 5665 5662 5658 5654 5649 5644 5639 5634 5629 5624 5619 5613 5608 5602 5596 5591 5585 5578
5818 5817 5816 5815 5813 5812 5810 5808 5806 5803 5801 5798 5796 5793 5791 5788 5786 5784 5783 5781 5780 5778 5777 5776 5774 5773 5772 5771 5769 5768 5766 5765 5764 5763 5761 5760 5759 5757 5756 5754 5752 5750 5748 5746 5744 5742 5739 5737 5734 5732 5730 5726 5724 5723 5720 5716 5713 5710 5705 5702 5699 5695 5691 5688 5683 5679 5677 5672 5667 5662 5657 5653 5650 5645 5640 5636 5631 5625 5620 5615 5609 5604 5599 5593 5587 5581 5575
5817 5815 5814 5813 5811 5809 5807 5805 5802 5800 5797 5795 5792 5790 5787 5785 5783 5782 5780 5778 5777 5776 5774 5773 5772 5771 5769 5768 5766 5765 5764 5762 5761 5760 5758 5757 5756 5754 5753 5751 5749 5747 5745 5743 5741 5739 5736 5734 5731 5729 5726 5723 5720 5719 5717 5713 5710 5707 5702 5699 5696 5693 5689 5685 5680 5676 5673 5669 5665 5660 5656 5650 5645 5642 5637 5632 5627 5622 5617 5611 5606 5600 5595 5589 5583 5577 5570
5815 5814 5812 5811 5809 5807 5805 5802 5800 5797 5794 5791 5789 5787 5785 5783 5781 5779 5778 5776 5775 5773 5772 5771 5770 5768 5767 5765 5764 5763 5761 5760 5759 5757 5756 5755 5753 5751 5750 5748 5746 5744 5742 5740 5738 5735 5733 5731 5728 5726 5723 5719 5716 5715 5713 5709 5706 5704 5700 5696 5693 5690 5686 5682 5676 5672 5669 5665 5661 5657 5653 5647 5642 5638 5633 5628 5623 5618 5613 5608 5602 5596 5590 5585 5579 5573 5567
5814 5812 5811 5809 5807 5805 5803 5800 5797 5794 5791 5789 5787 5785 5783 5781 5779 5778 5776 5775 5773 5772 5770 5769 5768 5766 5765 5763 5762 5761 5759 5758 5756 5755 5754 5752 5750 5749 5747 5745 5743 5741 5739 5737 5735 5732 5730 5727 5725 5722 5719 5716 5713 5711 5709 5705 5702 5700 5697 5692 5689 5686 5682 5678 5673 5668 5664 5660 5656 5653 5650 5645 5638 5634 5630 5625 5619 5614 5609 5604 5598 5592 5586 5580 5574 5568 5563
5812 5811 5809 5807 5805 5804 5801 5798 5795 5792 5790 5788 5786 5784 5782 5780 5778 5776 5775 5773 5772 5770 5769 5767 5766 5765 5763 5762 5760 5759 5757 5756 5754 5753 5751 5750 5748 5746 5744 5742 5740 5738 5736 5734 5732 5729 5727 5724 5722 5719 5716 5712 5709 5708 5706 5702 5698 5696 5693 5689 5685 5681 5678 5674 5670 5665 5661 5656 5651 5648 5645 5641 5635 5630 5626 5621 5616 5610 5605 5599 5594 5588 5582 5576 5570 5564 5559
5811 5809 5807 5806 5804 5802 5799 5796 5793 5791 5788 5786 5784 5782 5781 5779 5777 5775 5774 5772 5770 5769 5767 5766 5765 5763 5762 5760 5759 5757 5755 5754 5752 5751 5749 5747 5745 5743 5741 5739 5737 5735 5733 5731 5728 5726 5724 5721 5718 5716 5713 5709 5706 5705 5703 5699 5695 5692 5689 5685 5681 5677 5674 5670 5666 5662 5658 5653 5648 5643 5639 5636 5631 5626 5621 5616 5611 5605 5600 5594 5589 5583 5577 5571 5565 5560 5554
5809 5807 5806 5804 5802 5800 5798 5795 5793 5790 5788 5786 5784 5781 5780 5778 5776 5774 5773 5771 5769 5768 5766 5765 5763 5762 5760 5759 5757 5755 5754 5752 5750 5749 5747 5745 5743 5741 5739 5737 5734 5732 5730 5727 5725 5723 5721 5718 5715 5713 5710 5706 5703 5701 5699 5696 5692 5688 5684 5681 5677 5673 5670 5667 5663 5659 5655 5650 5645 5640 5635 5631 5626 5622 5616 5611 5606 5600 5595 5589 5583 5577 5572 5567 5561 5555 5550
5807 5806 5804 5803 5801 5799 5797 5794 5792 5789 5787 5785 5783 5781 5779 5777 5775 5773 5772 5770 5768 5767 5765 5763 5762 5760 5758 5757 5755 5754 5752 5750 5748 5746 5744 5742 5740 5738 5736 5734 5732 5729 5727 5724 5722 5720 5718 5715 5712 5710 5706 5703 5700 5698 5695 5692 5689 5685 5681 5677 5673 5669 5665 5662 5658 5655 5651 5647 5642 5636 5631 5626 5622 5617 5611 5606 5600 5595 5589 5584 5578 5572 5567 5562 5556 5550 5545
5806 5804 5803 5801 5799 5797 5795 5793 5791 5789 5786 5784 5782 5780 5778 5776 5774 5773 5771 5769 5767 5766 5764 5762 5760 5759 5757 5755 5754 5752 5750 5748 5746 5744 5742 5740 5738 5736 5734 5732 5730 5727 5725 5722 5720 5718 5715 5712 5710 5707 5703 5700 5697 5694 5691 5688 5685 5682 5678 5675 5670 5666 5662 5657 5652 5649 5646 5642 5637 5632 5626 5621 5616 5611 5605 5600 5595 5589 5584 5579 5573 5567 5562 5557 5551 5545 5540
5804 5803 5801 5799 5798 5796 5794 5792 5790 5788 5786 5783 5781 5779 5777 5776 5774 5772 5770 5768 5766 5765 5763 5761 5759 5758 5756 5754 5752 5750 5748 5746 5744 5742 5740 5738 5736 5734 5732 5730 5727 5725 5723 5720 5718 5716 5713 5710 5708 5704 5701 5698 5695 5692 5689 5685 5681 5678 5674 5671 5667 5663 5658 5653 5647 5642 5639 5637 5633 5627 5621 5615 5611 5606 5601 5595 5590 5584 5579 5574 5568 5562 5557 5551 5545 5539 5534
5803 5801 5799 5798 5796 5794 5792 5791 5789 5787 5784 5782 5780 5778 5777 5775 5773 5771 5769 5767 5765 5764 5762 5760 5758 5756 5755 5752 5750 5749 5747 5744 5742 5740 5738 5736 5734 5732 5729 5727 5725 5723 5721 5718 5716 5713 5711 5708 5706 5703 5699 5696 5693 5689 5686 5682 5678 5673 5668 5664 5661 5657 5653 5649 5644 5638 5633 5630 5627 5622 5616 5610 5605 5601 5596 5590 5585 5580 5574 5569 5563 5557 5551 5546 5540 5534 5529
5801 5799 5797 5796 5794 5792 5791 5789 5787 5785 5783 5781 5779 5778 5776 5774 5772 5770 5768 5766 5764 5762 5761 5759 5757 5755 5753 5751 5749 5746 5744 5742 5740 5738 5735 5733 5731 5729 5727 5724 5721 5719 5717 5715 5713 5710 5708 5706 5703 5700 5696 5693 5690 5686 5682 5678 5674 5670 5664 5659 5655 5652 5648 5644 5640 5634 5628 5624 5620 5616 5611 5604 5598 5594 5589 5584 5579 5574 5569 5563 5557 5551 5546 5540 5535 5529 5524
5799 5797 5796 5794 5792 5790 5789 5787 5785 5783 5782 5780 5778 5776 5775 5773 5771 5769 5767 5765 5763 5761 5759 5757 5755 5753 5751 5749 5747 5744 5742 5740 5737 5735 5733 5730 5728 5725 5723 5721 5718 5716 5714 5711 5709 5706 5704 5702 5699 5695 5691 5688 5685 5682 5678 5674 5670 5666 5661 5655 5651 5646 5642 5639 5635 5630 5624 5619 5614 5610 5605 5599 5593 5587 5582 5577 5572 5568 5563 5558 5552 5546 5540 5535 5530 5524 5518
5797 5795 5793 5792 5790 5788 5787 5785 5783 5781 5780 5778 5776 5775 5773 5771 5769 5767 5765 5763 5761 5759 5757 5755 5753 5751 5749 5747 5744 5742 5740 5737 5735 5732 5730 5728 5725 5723 5720 5717 5715 5712 5710 5707 5705 5702 5699 5697 5694 5691 5687 5683 5679 5676 5673 5669 5665 5661 5657 5652 5647 5641 5637 5633 5629 5624 5618 5613 5609 5604 5599 5594 5588 5582 5576 5571 5566 5561 5556 5552 5546 5541 5535 5529 5524 5518 5513
5794 5793 5791 5790 5788 5786 5785 5783 5781 5779 5778 5776 5774 5773 5771 5769 5767 5765 5763 5761 5759 5757 5755 5753 5751 5749 5746 5744 5742 5739 5737 5734 5731 5729 5727 5724 5721 5719 5716 5714 5711 5708 5706 5703 5700 5697 5694 5691 5688 5685 5681 5678 5674 5670 5666 5662 5658 5654 5651 5646 5641 5636 5631 5626 5623 5618 5612 5606 5602 5598 5593 5588 5583 5576 5570 5565 5560 5556 5551 5545 5539 5534 5529 5524 5518 5513 5507
5791 5790 5789 5787 5786 5784 5782 5780 5779 5777 5775 5774 5772 5770 5768 5766 5765 5762 5760 5758 5756 5754 5752 5750 5748 5745 5743 5741 5739 5736 5733 5731 5728 5725 5722 5720 5717 5714 5712 5710 5707 5704 5702 5699 5696 5692 5688 5685 5682 5679 5676 5672 5669 5664 5660 5655 5651 5648 5644 5640 5635 5629 5624 5619 5615 5611 5606 5600 5595 5591 5586 5581 5576 5571 5565 5559 5554 5550 5546 5540 5533 5527 5523 5518 5512 5507 5501
5789 5787 5786 5784 5783 5781 5780 5778 5776 5775 5773 5771 5769 5767 5765 5764 5762 5760 5758 5755 5753 5751 5749 5747 5744 5742 5740 5737 5735 5732 5730 5727 5724 5721 5718 5715 5713 5710 5707 5705 5702 5699 5697 5694 5691 5688 5684 5680 5677 5673 5670 5666 5662 5658 5653 5650 5645 5641 5638 5634 5628 5622 5617 5613 5608 5604 5599 5594 5589 5584 5579 5574 5569 5565 5560 5554 5547 5542 5538 5534 5527 5521 5516 5511 5506 5500 5495
5786 5784 5783 5782 5780 5779 5777 5775 5773 5772 5770 5768 5766 5765 5763 5761 5759 5757 5755 5752 5750 5748 5746 5743 5741 5739 5736 5733 5731 5728 5725 5723 5720 5717 5714 5711 5708 5706 5703 5700 5696 5693 5690 5688 5685 5682 5679 5676 5672 5668 5664 5660 5656 5651 5647 5643 5639 5634 5631 5627 5622 5616 5610 5606 5601 5596 5591 5586 5581 5577 5572 5566 5562 5557 5553 5548 5541 5535 5530 5525 5520 5514 5509 5504 5499 5493 5488
5783 5782 5780 5779 5777 5776 5774 5772 5770 5769 5767 5765 5764 5762 5760 5758 5756 5753 5751 5749 5747 5745 5742 5740 5738 5735 5733 5730 5727 5725 5721 5718 5715 5712 5709 5706 5704 5702 5699 5696 5692 5687 5683 5681 5679 5677 5674 5671 5667 5663 5658 5654 5650 5646 5641 5637 5632 5628 5623 5619 5614 5609 5604 5598 5593 5588 5583 5578 5573 5568 5563 5558 5553 5548 5544 5540 5535 5528 5522 5517 5512 5506 5500 5496 5491 5486 5481
5780 5779 5777 5776 5774 5773 5771 5769 5767 5766 5764 5762 5761 5759 5757 5755 5753 5750 5748 5746 5743 5741 5739 5736 5734 5732 5729 5726 5723 5721 5718 5714 5711 5709 5704 5700 5698 5695 5693 5690 5687 5682 5677 5674 5672 5670 5667 5664 5661 5657 5652 5647 5643 5639 5634 5629 5625 5620 5615 5610 5605 5601 5596 5591 5586 5580 5575 5570 5565 5560 5554 5549 5544 5539 5534 5531 5527 5521 5515 5509 5504 5498 5492 5488 5483 5478 5473
5778 5776 5775 5773 5772 5770 5768 5766 5764 5763 5761 5760 5758 5757 5755 5753 5750 5748 5745 5742 5740 5737 5735 5732 5730 5727 5725 5722 5719 5716 5713 5710 5707 5705 5701 5697 5693 5689 5687 5684 5681 5677 5672 5668 5665 5663 5660 5657 5653 5649 5645 5640 5635 5630 5625 5620 5615 5610 5605 5600 5595 5591 5586 5582 5577 5571 5566 5560 5555 5550 5545 5540 5535 5530 5525 5521 5518 5513 5507 5501 5496 5491 5485 5480 5475 5471 5465
5775 5774 5772 5771 5769 5768 5766 5764 5762 5760 5758 5757 5756 5754 5752 5750 5747 5745 5742 5739 5736 5733 5731 5728 5725 5723 5720 5717 5714 5711 5708 5705 5703 5701 5698 5693 5689 5685 5682 5679 5676 5671 5667 5662 5659 5656 5652 5649 5645 5641 5636 5631 5626 5621 5616 5611 5606 5601 5596 5591 5586 5581 5577 5572 5567 5562 5557 5551 5545 5541 5536 5531 5526 5521 5516 5512 5508 5505 5501 5495 5488 5483 5478 5473 5467 5462 5457
5773 5771 5770 5768 5767 5765 5763 5762 5760 5757 5755 5754 5753 5751 5749 5747 5744 5742 5739 5736 5733 5729 5727 5724 5721 5718 5715 5713 5710 5707 5704 5701 5699 5696 5693 5689 5685 5681 5677 5674 5670 5666 5662 5657 5653 5650 5646 5642 5637 5633 5628 5623 5618 5613 5608 5603 5598 5592 5587 5583 5578 5573 5567 5562 5557 5553 5549 5544 5538 5532 5528 5523 5518 5512 5508 5503 5499 5495 5492 5487 5480 5474 5470 5466 5460 5453 5447
5770 5769 5767 5766 5764 5762 5760 5758 5757 5755 5753 5751 5750 5748 5746 5744 5741 5738 5735 5732 5729 5726 5723 5720 5717 5713 5710 5708 5705 5702 5699 5697 5694 5691 5687 5683 5679 5676 5672 5668 5664 5660 5656 5651 5648 5643 5639 5635 5630 5625 5621 5616 5611 5606 5600 5595 5590 5584 5578 5573 5569 5564 5559 5554 5549 5544 5540 5536 5531 5525 5519 5515 5509 5503 5498 5494 5488 5483 5481 5478 5472 5465 5461 5457 5451 5444 5438
5768 5766 5764 5763 5761 5759 5757 5755 5753 5751 5749 5747 5746 5744 5742 5740 5737 5734 5731 5728 5725 5722 5719 5715 5712 5709 5705 5702 5700 5696 5693 5690 5688 5684 5681 5677 5673 5670 5666 5662 5658 5653 5649 5645 5642 5638 5633 5628 5623 5617 5611 5606 5601 5597 5592 5587 5582 5577 5571 5564 5559 5555 5550 5545 5540 5535 5530 5526 5522 5516 5510 5505 5499 5493 5488 5484 5478 5472 5468 5466 5463 5457 5452 5447 5441 5434 5428